Location: *
(28.3744°N, 81.5492°W)
Time: 04:17:41
(UTC+00:00)

Helios 1A Rocket - Pass Details

Date: 15 June 2025
Orbit: 464 x 479 km, 98.3° (Epoch: 11 July)

Event Time Altitude Azimuth Distance (km) Brightness Sun altitude
Rises 09:29:25 0° 165° (SSE) 2,516 6.0 -12.0°
Reaches altitude 10° 09:31:28 10° 164° (SSE) 1,644 5.1 -11.6°
Maximum altitude 09:34:59 81° 78° (ENE) 490 2.6 -11.0°
Drops below altitude 10° 09:38:33 10° 350° (N) 1,661 5.6 -10.3°
Sets 09:40:37 0° 349° (N) 2,545 6.5 -10.0°
